Wind_Speed
16 14 15 16 16 18 19 19 20 21 20 21 21 22 21 21 21 21 21 21 20 20 20 20 20 20 19 18 19 19 19 19 20 20 21 21 22 22 21 20 19 19 19 19
15 14 15 16 16 18 19 20 21 23 22 21 21 22 21 22 22 21 21 21 21 20 19 18 18 18 18 18 18 18 18 18 19 20 21 21 21 21 20 19 19 18 18 17
16 16 16 17 17 19 20 22 23 23 21 21 22 22 21 22 22 22 21 21 20 19 18 17 17 17 17 17 18 18 18 18 19 19 20 19 19 19 19 19 19 18 18 17
17 17 19 18 18 19 20 21 21 22 22 22 21 22 22 21 22 21 20 19 18 17 16 16 16 17 17 17 17 17 17 18 18 18 18 18 19 19 19 19 19 18 17 16
17 17 18 17 18 18 19 20 20 21 22 20 21 21 20 20 18 18 17 16 16 15 15 15 16 16 17 17 17 17 17 17 17 17 17 18 19 19 19 18 17 17 16 16
17 18 18 18 18 17 19 20 19 19 19 19 19 19 18 17 16 16 15 14 15 14 14 14 15 16 16 16 16 15 15 15 17 17 17 17 18 18 18 17 16 16 16 15
19 18 19 18 18 17 19 19 17 18 18 18 18 18 17 16 15 14 14 14 13 13 13 13 14 14 14 14 14 14 14 15 16 17 16 16 16 17 16 16 16 16 16 15
18 18 18 17 17 17 17 17 17 17 17 17 17 16 15 15 14 14 14 13 12 12 12 12 12 13 13 13 13 13 13 14 15 16 16 16 15 16 16 16 16 15 15 14
17 18 17 16 16 16 16 16 16 16 15 15 15 15 13 12 13 13 12 11 11 11 11 11 11 11 11 12 12 12 12 13 14 15 15 16 15 15 15 15 15 15 14 14
17 17 16 15 14 15 15 16 15 14 14 14 13 12 11 11 11 10 9 9 9 9 10 10 10 10 10 11 11 11 11 12 13 14 14 14 14 15 15 15 15 15 15 15
16 15 15 15 14 14 14 13 12 12 11 11 11 10 9 9 8 7 7 8 8 8 9 9 9 9 9 10 10 10 11 12 13 14 14 14 14 14 15 15 15 15 15 15
15 14 14 14 13 13 13 13 11 10 8 8 8 6 6 6 6 7 7 8 7 8 8 8 8 8 9 9 9 10 10 11 12 14 13 14 14 14 15 15 15 15 15 15
15 14 15 14 13 12 11 11 10 8 7 6 5 4 4 5 5 5 6 7 7 7 7 7 7 8 8 9 9 9 10 11 12 13 14 14 15 14 14 15 15 15 15 15
14 14 14 12 11 10 9 9 9 8 7 6 5 4 5 5 5 5 5 5 5 6 6 7 7 7 8 8 9 9 10 11 13 14 15 15 15 15 15 15 15 15 15 15
12 12 11 10 9 8 8 8 7 6 6 5 4 3 3 3 3 4 4 5 5 5 5 6 6 6 7 8 9 10 10 11 12 13 14 15 15 15 15 15 15 16 16 16
11 10 9 8 7 7 7 7 7 6 4 3 2 2 2 2 3 3 4 4 4 4 5 5 6 7 8 8 9 10 10 11 12 13 15 15 16 16 16 16 16 17 18 18
9 9 8 6 6 6 6 6 6 5 3 2 1 0 1 1 2 3 3 4 4 5 6 6 7 8 8 9 10 10 10 12 13 14 15 16 16 17 17 18 17 17 18 19
9 9 8 7 6 5 5 5 5 5 4 3 2 1 1 1 2 3 4 4 5 6 7 7 8 8 9 10 10 11 12 13 14 15 15 16 17 17 18 18 18 19 19 20
10 9 9 8 7 7 6 6 5 6 5 3 2 2 1 2 3 3 4 5 6 6 7 8 9 10 10 11 12 13 14 14 15 16 16 17 17 18 19 19 19 20 20 21
10 10 10 9 9 8 7 6 6 5 5 3 2 2 2 2 3 4 5 6 6 7 8 9 10 10 11 12 13 14 15 15 16 16 17 18 19 19 20 21 22 22 23 23
10 11 11 11 10 9 8 7 6 5 4 3 3 2 2 2 3 4 5 6 7 7 9 10 10 11 12 13 14 15 15 16 17 17 18 19 20 21 22 23 24 24 24 25
11 11 11 11 10 9 8 7 6 5 4 3 2 1 2 3 4 5 6 7 7 8 9 10 11 12 13 14 14 15 16 17 17 18 19 20 21 22 23 24 25 25 25 26
12 12 12 11 10 9 8 7 6 5 4 3 1 1 2 4 5 5 6 7 8 9 9 10 12 13 14 14 15 16 17 17 18 19 20 21 23 24 25 26 26 26 26 27
13 12 12 11 10 9 8 7 5 4 3 1 1 2 3 4 5 6 7 8 8 9 10 11 13 13 14 15 16 17 18 18 19 20 21 23 25 26 26 27 27 27 27 28
14 12 11 11 10 9 8 6 5 3 2 0 1 3 4 5 6 6 7 8 9 10 11 13 13 14 15 16 17 18 19 19 20 21 23 25 26 26 27 27 28 28 29 30
14 12 12 11 10 9 7 5 4 3 1 1 2 3 4 5 6 7 8 9 10 11 13 14 15 15 17 18 18 19 19 20 22 23 25 26 27 27 28 29 29 30 31 32
14 13 12 12 10 9 7 5 4 2 1 2 2 3 5 6 7 8 9 10 11 12 14 15 15 16 17 19 19 20 21 22 23 25 26 27 28 29 30 31 31 32 33 33
Wind_Direction
268 264 263 269 271 264 263 265 270 275 275 272 275 278 283 287 288 289 289 290 293 296 297 297 297 300 301 304 308 311 311 311 311 311 313 317 321 322 321 321 322 322 322 320
266 268 266 269 275 274 271 269 274 275 275 274 276 278 280 287 289 290 290 290 291 294 296 296 297 300 302 305 308 310 312 311 312 313 315 318 322 324 322 322 322 322 322 322
265 266 267 268 271 272 272 270 273 275 276 278 278 277 285 289 289 289 290 291 292 293 294 296 297 300 303 304 307 308 309 311 312 313 315 318 321 324 324 325 323 320 320 322
270 268 270 274 275 274 276 273 273 274 274 275 282 286 287 289 289 290 289 290 292 292 291 294 296 299 302 303 305 309 312 313 313 314 316 317 321 321 321 322 323 321 320 323
267 273 278 278 279 277 277 276 273 271 272 276 281 284 287 289 289 288 287 288 290 290 291 293 295 298 301 302 307 310 312 313 315 315 318 318 319 321 323 324 327 324 323 324
266 272 278 281 280 280 278 277 274 273 275 279 283 285 290 292 291 289 287 287 288 288 291 294 295 299 303 306 309 309 311 314 316 318 322 323 324 324 324 326 328 330 328 326
268 271 277 284 284 282 279 281 277 276 274 277 280 283 288 291 292 290 288 287 288 289 292 295 297 301 305 307 309 311 313 316 321 325 327 328 327 328 329 330 330 330 330 331
268 270 275 281 283 281 278 275 276 278 278 277 278 281 284 286 289 288 286 286 289 290 292 294 298 302 305 308 310 312 315 319 323 327 330 332 334 335 335 336 336 335 334 335
270 272 278 281 280 282 278 276 276 274 276 273 276 278 276 279 285 286 284 288 289 288 293 297 300 303 307 311 314 318 323 327 330 332 333 335 337 338 339 341 342 342 341 341
270 273 278 282 280 279 279 277 273 274 276 273 278 273 270 276 288 285 283 286 285 287 295 301 304 306 310 315 316 318 324 329 331 334 337 338 338 339 341 343 344 343 342 341
267 271 277 278 280 282 280 275 270 271 274 275 276 276 276 282 290 288 293 289 289 293 297 302 308 312 316 319 321 320 325 330 331 335 339 341 341 341 341 341 342 341 341 340
266 270 274 277 278 279 276 270 267 264 268 275 274 279 285 290 285 283 291 290 294 297 302 306 310 314 318 322 323 325 327 328 330 334 338 341 342 341 343 342 341 341 340 340
268 270 272 275 274 275 273 267 260 258 262 275 277 281 291 290 289 287 289 289 295 299 304 306 310 317 322 326 327 329 331 332 334 334 336 339 340 339 339 341 341 342 341 339
261 267 269 268 269 267 262 256 255 255 254 262 276 286 289 296 293 298 297 297 302 304 305 309 314 319 323 326 328 330 333 336 336 337 337 337 340 342 341 340 340 339 338 338
253 257 260 261 262 258 251 246 242 242 248 254 274 284 290 301 300 304 306 306 310 312 314 318 325 330 334 335 336 335 338 339 338 341 342 341 341 342 343 343 341 340 338 335
245 247 248 250 248 245 239 232 230 231 233 239 252 273 286 304 326 335 331 327 326 326 328 334 335 336 338 338 340 341 344 342 341 341 342 342 342 343 343 342 340 338 337 336
235 233 232 229 227 223 216 214 216 211 205 211 227 244 26 8 4 9 11 7 360 357 355 349 346 345 343 343 342 343 342 341 341 341 341 341 341 342 342 341 340 338 336 334
219 216 213 208 202 198 193 190 186 177 169 168 157 129 81 43 25 23 20 14 10 5 1 360 355 351 346 343 343 346 346 344 343 342 342 342 342 342 340 339 338 337 335 335
207 203 200 196 192 193 189 183 172 162 158 154 137 117 89 67 45 23 16 9 3 0 359 359 357 354 349 346 344 344 343 342 342 342 341 341 341 339 338 337 336 333 332 331
199 198 194 189 188 185 181 172 165 166 167 163 145 123 96 61 32 18 14 5 359 359 358 355 353 351 348 346 345 344 343 341 341 341 341 341 340 339 339 338 336 334 332 331
193 191 189 186 182 179 175 171 170 172 172 163 145 118 72 32 15 6 3 358 357 356 354 352 351 351 348 347 346 344 342 341 341 342 341 340 339 338 337 336 335 334 333 332
184 181 181 180 176 176 172 169 166 162 161 159 151 92 4 358 359 357 355 353 353 352 349 348 348 347 345 345 343 341 342 342 343 342 341 341 339 338 337 336 335 333 332 332
181 179 177 178 175 169 167 165 160 158 155 158 159 338 341 346 348 349 351 351 350 348 346 345 345 344 344 343 341 341 342 342 342 341 341 341 339 338 337 336 336 334 332 331
180 179 179 178 176 173 171 167 164 161 159 158 330 335 340 343 345 348 351 350 349 347 345 343 342 342 343 342 341 340 341 341 340 341 341 340 339 338 338 337 336 335 332 331
180 179 178 177 175 174 170 167 171 175 183 279 333 335 341 347 350 350 349 348 347 344 344 342 341 341 342 340 339 340 340 339 339 339 339 339 339 338 338 337 336 334 332 331
182 181 179 178 175 173 173 174 177 180 202 322 326 330 335 340 343 344 345 345 343 343 344 342 341 340 341 340 339 339 339 339 338 338 338 338 336 335 335 334 333 333 332 331
185 184 182 179 177 178 182 184 186 194 233 292 307 325 333 339 341 343 343 342 340 342 341 340 340 339 339 339 339 338 338 338 337 337 337 337 336 334 333 332 332 331 331 331
Height
5805 5805 5806 5806 5806 5806 5806 5806 5804 5804 5803 5802 5801 5800 5799 5798 5798 5797 5795 5794 5792 5790 5789 5787 5785 5783 5781 5779 5776 5774 5771 5768 5765 5762 5759 5756 5753 5749 5745 5742 5739 5735 5732 5728
5802 5802 5802 5801 5802 5802 5801 5801 5800 5799 5799 5798 5796 5794 5794 5793 5793 5792 5790 5789 5787 5786 5784 5782 5781 5779 5777 5775 5773 5770 5767 5764 5762 5759 5756 5753 5749 5746 5742 5739 5736 5732 5729 5726
5798 5798 5797 5798 5799 5798 5797 5796 5796 5794 5794 5792 5790 5789 5788 5788 5787 5786 5785 5783 5782 5781 5780 5778 5777 5775 5773 5771 5769 5766 5764 5761 5758 5755 5752 5749 5746 5743 5740 5736 5733 5730 5726 5723
5792 5794 5793 5796 5793 5793 5792 5791 5791 5790 5788 5787 5785 5784 5784 5783 5782 5781 5780 5779 5778 5777 5776 5775 5773 5772 5770 5768 5766 5763 5761 5758 5755 5752 5749 5746 5743 5740 5737 5734 5730 5727 5724 5721
5787 5787 5787 5789 5789 5788 5786 5785 5785 5784 5783 5782 5781 5780 5779 5778 5777 5776 5775 5775 5774 5773 5772 5771 5770 5768 5766 5764 5762 5760 5757 5755 5752 5749 5746 5743 5740 5737 5734 5731 5728 5725 5722 5719
5783 5783 5783 5785 5784 5782 5782 5780 5780 5779 5778 5777 5776 5775 5775 5773 5772 5771 5771 5770 5770 5769 5769 5768 5766 5765 5763 5761 5759 5757 5754 5752 5749 5746 5743 5740 5738 5735 5732 5729 5726 5723 5720 5717
5778 5778 5778 5779 5778 5778 5778 5776 5775 5774 5773 5773 5772 5771 5770 5769 5768 5768 5767 5767 5766 5766 5765 5764 5763 5761 5760 5758 5756 5754 5752 5750 5747 5744 5741 5738 5736 5733 5729 5727 5724 5721 5717 5715
5773 5773 5775 5774 5773 5773 5772 5771 5770 5770 5769 5768 5767 5767 5766 5765 5765 5764 5763 5763 5763 5762 5762 5761 5760 5759 5757 5756 5754 5752 5749 5747 5745 5742 5740 5737 5734 5731 5728 5725 5722 5719 5716 5714
5769 5770 5769 5768 5768 5768 5767 5766 5766 5765 5764 5764 5763 5763 5762 5762 5761 5760 5760 5760 5760 5759 5759 5758 5757 5756 5755 5754 5752 5749 5747 5745 5743 5741 5738 5735 5733 5730 5727 5724 5721 5718 5715 5713
5765 5765 5765 5764 5764 5763 5763 5762 5761 5761 5760 5760 5759 5759 5759 5759 5758 5757 5757 5757 5757 5756 5756 5756 5755 5754 5753 5751 5750 5748 5746 5744 5742 5739 5737 5734 5731 5729 5726 5723 5720 5717 5715 5712
5761 5762 5761 5761 5761 5760 5759 5758 5758 5757 5757 5757 5757 5757 5757 5757 5756 5755 5755 5755 5755 5755 5754 5754 5753 5752 5751 5749 5748 5746 5745 5743 5740 5738 5736 5733 5731 5728 5725 5722 5719 5717 5714 5711
5757 5758 5758 5758 5757 5756 5755 5755 5755 5755 5755 5756 5756 5756 5755 5755 5755 5755 5754 5753 5753 5753 5753 5752 5752 5751 5749 5748 5747 5745 5743 5741 5739 5737 5735 5732 5730 5727 5724 5722 5719 5716 5713 5711
5753 5754 5754 5754 5753 5753 5752 5752 5753 5753 5754 5754 5754 5754 5754 5754 5754 5753 5753 5753 5752 5752 5751 5751 5750 5749 5748 5747 5745 5744 5742 5740 5738 5736 5734 5731 5729 5726 5724 5721 5718 5715 5713 5710
5750 5750 5750 5750 5750 5750 5750 5750 5751 5751 5752 5752 5753 5753 5753 5753 5753 5753 5752 5752 5752 5751 5751 5750 5749 5748 5747 5746 5744 5743 5741 5739 5737 5735 5733 5730 5728 5725 5722 5720 5717 5714 5712 5709
5746 5746 5746 5747 5747 5747 5748 5749 5750 5750 5751 5752 5752 5752 5752 5752 5752 5752 5752 5751 5751 5750 5750 5749 5748 5747 5746 5745 5743 5742 5740 5739 5736 5734 5731 5729 5727 5724 5721 5718 5715 5713 5710 5707
5742 5743 5744 5744 5745 5746 5746 5748 5749 5750 5751 5751 5752 5752 5752 5752 5752 5752 5751 5751 5751 5750 5750 5749 5748 5747 5746 5744 5743 5741 5739 5737 5735 5733 5730 5728 5725 5722 5719 5716 5713 5710 5707 5704
5739 5741 5742 5743 5744 5745 5746 5747 5748 5749 5751 5752 5752 5752 5752 5753 5752 5752 5752 5751 5751 5750 5749 5749 5748 5746 5745 5744 5742 5740 5738 5736 5734 5731 5729 5726 5723 5720 5717 5714 5711 5708 5705 5701
5738 5739 5741 5742 5744 5745 5746 5747 5748 5750 5751 5752 5752 5753 5753 5753 5753 5753 5752 5752 5751 5751 5750 5748 5747 5746 5745 5743 5741 5739 5737 5735 5733 5730 5727 5725 5721 5718 5715 5712 5709 5705 5702 5698
5737 5738 5740 5742 5744 5745 5746 5748 5749 5750 5752 5753 5753 5754 5754 5754 5754 5754 5753 5752 5752 5751 5750 5748 5747 5746 5744 5743 5741 5739 5737 5734 5731 5729 5726 5723 5719 5716 5713 5709 5706 5702 5699 5695
5736 5738 5740 5742 5744 5745 5747 5749 5750 5751 5753 5753 5754 5754 5755 5755 5755 5754 5753 5753 5752 5751 5750 5748 5747 5745 5744 5742 5740 5738 5735 5733 5730 5727 5724 5721 5717 5714 5711 5707 5703 5699 5696 5692
5735 5737 5739 5742 5744 5746 5747 5749 5751 5752 5753 5754 5755 5755 5756 5756 5755 5755 5754 5753 5752 5751 5750 5748 5747 5745 5743 5741 5739 5737 5734 5731 5728 5725 5722 5719 5715 5712 5708 5704 5700 5696 5692 5688
5735 5737 5739 5742 5744 5746 5748 5750 5751 5753 5754 5755 5756 5756 5756 5756 5755 5755 5754 5753 5752 5751 5749 5748 5746 5744 5743 5740 5738 5735 5732 5729 5726 5723 5720 5717 5713 5709 5705 5701 5697 5692 5688 5683
5735 5737 5740 5742 5744 5747 5749 5751 5752 5753 5754 5755 5756 5756 5756 5756 5755 5754 5753 5753 5751 5750 5749 5747 5746 5744 5741 5739 5736 5734 5731 5728 5725 5721 5718 5714 5710 5706 5702 5697 5693 5688 5683 5679
5735 5738 5740 5743 5745 5747 5749 5751 5753 5754 5755 5755 5756 5756 5756 5755 5755 5754 5753 5752 5751 5749 5748 5746 5745 5742 5740 5738 5735 5732 5729 5726 5723 5719 5715 5711 5707 5702 5698 5693 5689 5684 5679 5674
5736 5738 5741 5743 5746 5748 5749 5751 5753 5754 5755 5755 5756 5756 5755 5755 5754 5754 5753 5752 5750 5749 5747 5745 5743 5741 5739 5736 5733 5730 5727 5724 5720 5717 5713 5708 5704 5699 5694 5690 5685 5680 5675 5669
5736 5739 5742 5744 5746 5748 5750 5751 5753 5754 5755 5755 5755 5755 5755 5755 5754 5753 5752 5751 5750 5748 5746 5744 5742 5739 5737 5734 5731 5728 5725 5721 5717 5714 5709 5705 5700 5696 5691 5686 5680 5675 5670 5664
5736 5739 5742 5744 5746 5748 5750 5751 5753 5753 5754 5754 5755 5755 5754 5754 5753 5752 5751 5750 5748 5747 5745 5743 5740 5738 5735 5732 5729 5725 5722 5718 5714 5710 5706 5701 5697 5692 5686 5681 5676 5670 5664 5658